Terminal Aerodrome Forecast
Issued by NWS

Home | Current Version | Previous Version | Text Only | Print | Product List | Glossary Off
Versions: 1 2 3 4 5 6 7 8 9 10 11 12 13 14

759
FTUS42 KMHX 260947 AAB
TAFISO
TAF AMD
KISO 260947Z 2610/2706 VRB03KT P6SM BKN005
     FM261300 VRB04KT P6SM SCT007 BKN015
     FM261500 28007KT P6SM SCT040
      AMD LTD TO CLD VIS AND WIND=

USA.gov is the U.S. government's official web portal to all federal, state and local government web resources and services.